Kuiper-00149

operational
NORAD ID: 65968 Int'l Des: 2025-228 Owner: KUIP Country: US Constellation: kuiper
NOTLE

About Kuiper-00149

Description loading...

Live Position

Loading 3D Globe...

Upcoming Passes

Altitude History

Altitude vs Time

uPlot chart will show altitude changes over time

Two-Line Element Set

1 65968U 25228X 25298.47515441 .00026713 00000-0 79325-3 0 9998
2 65968 51.8808 253.0626 0005741 177.1141 182.9878 15.34585346 3009
Epoch: Oct 25, 2025 • Age: 13 hours

Current Status

Altitude 467.5 km
Velocity 7.64 km/s
Sub-Earth Point 51.43°N, 47.22°W
Launch Date Oct 14, 2025
Age 11 days
Type internet

Technical Details

Classification Payload
Mass 490.00 kg
Dry Mass 490.00 kg
Total Mass 490.00 kg
Length 1.80 m
Diameter 0.70 m
Span 5.00 m
Shape Box + 2 pan
Manufacturer KUIP
Bus Type Kuiper
Phase Status In Orbit
Owner/State KUIP/US

Large Constellations

Loading constellations...